Marshfield, MA

2:27 AM EST on December 06, 2016 (GMT -0500)
Marshfield

Weather History for KGHG - February, 2013

Change the Weather History Date:

Monday, February 4, 2013

  Actual Average (KPYM) Record (KPYM)
Temperature  
Mean Temperature 28 °F -  
Max Temperature 32 °F 39 °F 66 °F (1991)
Min Temperature 23 °F 19 °F -5 °F (1971)
Degree Days  
Heating Degree Days 38    
Moisture  
Dew Point 12 °F    
Average Humidity 54    
Maximum Humidity 93    
Minimum Humidity 32    
Precipitation  
Precipitation 0.00 in - - ()
Sea Level Pressure  
Sea Level Pressure 29.82 in    
Wind  
Wind Speed 8 mph (West)    
Max Wind Speed 17 mph    
Max Gust Speed 28 mph    
Visibility 10 miles    
Events      
Averages and records for this station are not official NWS values.
T = Trace of Precipitation, MM = Missing Value Source: NWS Daily Summary

Daily Weather History Graph

Daily Weather History Graph

Search for Another Location

Airport or City:

Trip Planner

Search our weather history database for the weather conditions in past years. The results will help you decide how hot, cold, wet, or windy it might be!

Date:

Astronomy

Feb. 04, 2013 Rise Set
Actual Time 6:52 AM EST 5:01 PM EST
Civil Twilight 6:22 AM EST 5:31 PM EST
Nautical Twilight 5:49 AM EST 6:04 PM EST
Astronomical Twilight 5:16 AM EST 6:37 PM EST
Moon 1:25 AM EST (2/4) 11:21 AM EST (2/4)
Length of Visible Light 11h 08m
Length of Day
10h 09m
Last Quarter, 37% of the Moon is Illuminated
Feb 4
Last Quarter
Feb 10
New
Feb 17
First Quarter
Feb 25
Full
Mar 4
Last Quarter

Hourly Weather History & Observations

Time (EST) Temp. Windchill Dew Point Humidity Pressure Visibility Wind Dir Wind Speed Gust Speed Precip Events Conditions
12:15 AM 28.4 °F 23.3 °F 23.0 °F 80% 29.73 in 10.0 mi West 4.6 mph - N/A   Scattered Clouds
12:35 AM 28.4 °F 23.3 °F 21.2 °F 74% 29.73 in 10.0 mi West 4.6 mph - N/A   Partly Cloudy
12:55 AM 28.4 °F 23.3 °F 21.2 °F 74% 29.73 in 10.0 mi West 4.6 mph - N/A   Mostly Cloudy
1:15 AM 28.4 °F 22.2 °F 21.2 °F 74% 29.73 in 10.0 mi West 5.8 mph - N/A   Mostly Cloudy
1:35 AM 28.4 °F 23.3 °F 21.2 °F 74% 29.74 in 10.0 mi WSW 4.6 mph - N/A   Overcast
1:55 AM 26.6 °F 21.2 °F 21.2 °F 80% 29.74 in 10.0 mi West 4.6 mph - N/A   Overcast
2:15 AM 26.6 °F 19.1 °F 21.2 °F 80% 29.73 in 10.0 mi West 6.9 mph - N/A   Overcast
2:35 AM 26.6 °F 22.6 °F 21.2 °F 80% 29.73 in 10.0 mi West 3.5 mph - N/A   Scattered Clouds
2:55 AM 26.6 °F 20.0 °F 21.2 °F 80% 29.72 in 10.0 mi West 5.8 mph - N/A   Clear
3:15 AM 26.6 °F 20.0 °F 21.2 °F 80% 29.72 in 10.0 mi WSW 5.8 mph - N/A   Clear
3:35 AM 24.8 °F 19.1 °F 21.2 °F 86% 29.73 in 10.0 mi WSW 4.6 mph - N/A   Clear
3:55 AM 23.0 °F 17.0 °F 21.2 °F 93% 29.73 in 10.0 mi West 4.6 mph - N/A   Clear
4:15 AM 23.0 °F 18.4 °F 19.4 °F 86% 29.73 in 10.0 mi West 3.5 mph - N/A   Clear
5:55 AM 23.0 °F 14.7 °F 15.8 °F 74% 29.76 in 10.0 mi West 6.9 mph - N/A   Scattered Clouds
6:15 AM 23.0 °F 13.9 °F 14.0 °F 68% 29.76 in 10.0 mi West 8.1 mph - N/A   Clear
6:35 AM 23.0 °F 13.9 °F 14.0 °F 68% 29.77 in 10.0 mi West 8.1 mph - N/A   Clear
6:55 AM 23.0 °F 13.9 °F 14.0 °F 68% 29.77 in 10.0 mi West 8.1 mph - N/A   Clear
7:15 AM 24.8 °F 14.6 °F 14.0 °F 64% 29.78 in 10.0 mi West 10.4 mph 17.3 mph N/A   Clear
7:35 AM 26.6 °F 16.8 °F 14.0 °F 59% 29.78 in 10.0 mi West 10.4 mph 17.3 mph N/A   Clear
7:55 AM 26.6 °F 18.2 °F 14.0 °F 59% 29.79 in 10.0 mi West 8.1 mph - N/A   Clear
8:15 AM 28.4 °F 18.5 °F 14.0 °F 55% 29.79 in 10.0 mi West 11.5 mph 19.6 mph N/A   Clear
8:35 AM 28.4 °F 17.0 °F 14.0 °F 55% 29.79 in 10.0 mi West 15.0 mph 20.7 mph N/A   Clear
8:55 AM 28.4 °F 18.0 °F 14.0 °F 55% 29.79 in 10.0 mi West 12.7 mph 18.4 mph N/A   Clear
9:15 AM 30.2 °F 20.8 °F 14.0 °F 51% 29.79 in 10.0 mi West 11.5 mph 18.4 mph N/A   Clear
9:35 AM 30.2 °F 21.9 °F 12.2 °F 47% 29.80 in 10.0 mi West 9.2 mph 21.9 mph N/A   Clear
9:55 AM 30.2 °F 21.3 °F 12.2 °F 47% 29.79 in 10.0 mi WSW 10.4 mph 21.9 mph N/A   Clear
10:15 AM 30.2 °F 19.8 °F 12.2 °F 47% 29.80 in 10.0 mi West 13.8 mph 24.2 mph N/A   Clear
10:55 AM 32.0 °F 22.5 °F 12.2 °F 44% 29.80 in 10.0 mi West 12.7 mph 20.7 mph N/A   Partly Cloudy
11:15 AM 32.0 °F 21.6 °F 10.4 °F 41% 29.80 in 10.0 mi West 15.0 mph 27.6 mph N/A   Clear
11:35 AM 32.0 °F 21.2 °F 10.4 °F 41% 29.79 in 10.0 mi West 16.1 mph 26.5 mph N/A   Clear
11:55 AM 32.0 °F 22.1 °F 8.6 °F 38% 29.79 in 10.0 mi West 13.8 mph 24.2 mph N/A   Clear
12:15 PM 32.0 °F 22.5 °F 8.6 °F 38% 29.78 in 10.0 mi West 12.7 mph 23.0 mph N/A   Partly Cloudy
12:35 PM 32.0 °F 21.2 °F 8.6 °F 38% 29.78 in 10.0 mi West 16.1 mph 26.5 mph N/A   Scattered Clouds
12:55 PM 32.0 °F 21.6 °F 8.6 °F 38% 29.78 in 10.0 mi West 15.0 mph 21.9 mph N/A   Partly Cloudy
1:15 PM 32.0 °F 22.5 °F 8.6 °F 38% 29.78 in 10.0 mi West 12.7 mph 24.2 mph N/A   Partly Cloudy
1:35 PM 32.0 °F 22.5 °F 8.6 °F 38% 29.78 in 10.0 mi WSW 12.7 mph 24.2 mph N/A   Partly Cloudy
1:55 PM 30.2 °F 20.2 °F 8.6 °F 40% 29.79 in 10.0 mi West 12.7 mph 24.2 mph N/A   Clear
2:15 PM 32.0 °F 21.6 °F 8.6 °F 38% 29.79 in 10.0 mi West 15.0 mph 23.0 mph N/A   Scattered Clouds
2:35 PM 32.0 °F 21.6 °F 8.6 °F 38% 29.80 in 10.0 mi West 15.0 mph 23.0 mph N/A   Mostly Cloudy
2:55 PM 32.0 °F 21.2 °F 8.6 °F 38% 29.81 in 10.0 mi WSW 16.1 mph 23.0 mph N/A   Mostly Cloudy
3:15 PM 30.2 °F 21.3 °F 8.6 °F 40% 29.81 in 10.0 mi WSW 10.4 mph 24.2 mph N/A   Scattered Clouds
3:35 PM 30.2 °F 18.5 °F 6.8 °F 37% 29.81 in 10.0 mi WSW 17.3 mph 27.6 mph N/A   Clear
3:55 PM 32.0 °F 22.1 °F 5.0 °F 32% 29.81 in 10.0 mi WSW 13.8 mph 20.7 mph N/A   Clear
4:15 PM 30.2 °F 19.8 °F 5.0 °F 34% 29.81 in 10.0 mi West 13.8 mph 20.7 mph N/A   Partly Cloudy
4:35 PM 30.2 °F 21.3 °F 5.0 °F 34% 29.81 in 10.0 mi West 10.4 mph 19.6 mph N/A   Clear
4:55 PM 30.2 °F 21.9 °F 5.0 °F 34% 29.82 in 10.0 mi WSW 9.2 mph 19.6 mph N/A   Clear
5:15 PM 30.2 °F 21.3 °F 6.8 °F 37% 29.83 in 10.0 mi West 10.4 mph 19.6 mph N/A   Clear
5:35 PM 30.2 °F 21.3 °F 8.6 °F 40% 29.84 in 10.0 mi WSW 10.4 mph 21.9 mph N/A   Clear
5:55 PM 28.4 °F 19.7 °F 8.6 °F 43% 29.86 in 10.0 mi West 9.2 mph 20.7 mph N/A   Clear
6:15 PM 28.4 °F 21.2 °F 8.6 °F 43% 29.87 in 10.0 mi West 6.9 mph - N/A   Clear
6:35 PM 28.4 °F 22.2 °F 8.6 °F 43% 29.88 in 10.0 mi West 5.8 mph - N/A   Clear
6:55 PM 28.4 °F 20.4 °F 8.6 °F 43% 29.88 in 10.0 mi West 8.1 mph - N/A   Clear
7:15 PM 28.4 °F 18.0 °F 10.4 °F 47% 29.89 in 10.0 mi West 12.7 mph 18.4 mph N/A   Clear
7:35 PM 28.4 °F 20.4 °F 10.4 °F 47% 29.90 in 10.0 mi WSW 8.1 mph - N/A   Clear
7:55 PM 28.4 °F 22.2 °F 10.4 °F 47% 29.90 in 10.0 mi WSW 5.8 mph - N/A   Clear
8:15 PM 26.6 °F 18.2 °F 10.4 °F 51% 29.91 in 10.0 mi West 8.1 mph - N/A   Clear
8:35 PM 26.6 °F 21.2 °F 10.4 °F 51% 29.92 in 10.0 mi West 4.6 mph - N/A   Clear
8:55 PM 26.6 °F 18.2 °F 10.4 °F 51% 29.92 in 10.0 mi West 8.1 mph - N/A   Clear
9:15 PM 26.6 °F 20.0 °F 10.4 °F 51% 29.94 in 10.0 mi WSW 5.8 mph - N/A   Clear
9:35 PM 26.6 °F 20.0 °F 10.4 °F 51% 29.94 in 10.0 mi West 5.8 mph - N/A   Clear
9:55 PM 26.6 °F 19.1 °F 10.4 °F 51% 29.94 in 10.0 mi WSW 6.9 mph - N/A   Clear
10:15 PM 24.8 °F 16.9 °F 10.4 °F 54% 29.94 in 10.0 mi WSW 6.9 mph - N/A   Clear
10:35 PM 24.8 °F 16.1 °F 10.4 °F 54% 29.94 in 10.0 mi WSW 8.1 mph - N/A   Clear
10:55 PM 24.8 °F 15.3 °F 10.4 °F 54% 29.94 in 10.0 mi West 9.2 mph - N/A   Partly Cloudy
11:15 PM 24.8 °F 16.9 °F 10.4 °F 54% 29.95 in 10.0 mi West 6.9 mph - N/A   Scattered Clouds
11:35 PM 24.8 °F 15.3 °F 10.4 °F 54% 29.96 in 10.0 mi WSW 9.2 mph - N/A   Scattered Clouds
11:55 PM 26.6 °F 20.0 °F 10.4 °F 51% 29.96 in 10.0 mi WSW 5.8 mph - N/A   Overcast